QPF
0.04 0.02 0.03 0.05 0.10 0.12 0.11 0.09 0.07 0.04 0.02 0.01 0.01 0.01 0.02 0.03 0.05 0.08 0.09 0.07 0.03 0.01 0.01 0.02 0.03 0.06 0.05 0.04 0.04 0.03 0.04 0.04 0.04 0.05 0.03 0.04 0.05 0.05 0.06 0.05 0.05 0.05 0.06 0.05 0.03 0.02 0.02 0.02 0.02
0.03 0.03 0.05 0.07 0.11 0.12 0.12 0.08 0.07 0.04 0.02 0.02 0.01 0.01 0.00 0.01 0.02 0.05 0.08 0.06 0.02 0.01 0.02 0.02 0.03 0.06 0.06 0.04 0.03 0.03 0.03 0.03 0.05 0.07 0.04 0.05 0.05 0.05 0.05 0.04 0.04 0.05 0.05 0.04 0.04 0.03 0.03 0.03 0.02
0.02 0.03 0.05 0.08 0.09 0.10 0.08 0.06 0.03 0.01 0.01 0.02 0.03 0.02 0.01 0.02 0.02 0.05 0.05 0.04 0.02 0.02 0.03 0.02 0.03 0.05 0.05 0.02 0.03 0.04 0.04 0.04 0.05 0.06 0.05 0.05 0.04 0.04 0.04 0.04 0.04 0.04 0.04 0.05 0.06 0.05 0.05 0.03 0.01
0.02 0.05 0.06 0.07 0.06 0.06 0.06 0.04 0.02 0.02 0.01 0.02 0.03 0.03 0.02 0.02 0.03 0.04 0.04 0.04 0.03 0.03 0.04 0.04 0.05 0.05 0.03 0.04 0.04 0.05 0.05 0.06 0.07 0.07 0.05 0.04 0.04 0.04 0.05 0.05 0.04 0.04 0.03 0.03 0.04 0.05 0.04 0.02 0.01
0.04 0.08 0.09 0.06 0.03 0.03 0.03 0.02 0.02 0.02 0.02 0.02 0.03 0.03 0.04 0.02 0.02 0.03 0.04 0.04 0.03 0.02 0.03 0.03 0.06 0.04 0.03 0.05 0.05 0.04 0.04 0.06 0.09 0.08 0.07 0.06 0.06 0.05 0.06 0.06 0.06 0.06 0.04 0.04 0.05 0.05 0.03 0.02 0.01
0.06 0.07 0.07 0.05 0.03 0.02 0.03 0.02 0.02 0.03 0.03 0.03 0.03 0.02 0.03 0.02 0.01 0.01 0.01 0.02 0.02 0.02 0.02 0.03 0.04 0.04 0.04 0.03 0.04 0.03 0.04 0.04 0.06 0.07 0.10 0.10 0.06 0.05 0.05 0.06 0.06 0.06 0.05 0.04 0.04 0.04 0.04 0.03 0.02
0.05 0.07 0.06 0.04 0.04 0.03 0.02 0.01 0.01 0.03 0.04 0.03 0.02 0.02 0.03 0.03 0.02 0.01 0.01 0.00 0.01 0.01 0.03 0.05 0.03 0.02 0.02 0.02 0.03 0.04 0.05 0.05 0.05 0.06 0.12 0.11 0.06 0.04 0.04 0.04 0.05 0.05 0.04 0.05 0.04 0.03 0.03 0.03 0.03
0.02 0.05 0.04 0.04 0.04 0.03 0.01 0.01 0.01 0.01 0.03 0.02 0.01 0.02 0.04 0.03 0.03 0.01 0.01 0.01 0.01 0.01 0.02 0.04 0.04 0.04 0.04 0.03 0.03 0.03 0.04 0.05 0.05 0.06 0.10 0.10 0.07 0.04 0.04 0.04 0.03 0.04 0.04 0.04 0.04 0.03 0.03 0.03 0.02
0.01 0.05 0.04 0.03 0.03 0.02 0.01 0.00 0.01 0.01 0.02 0.02 0.01 0.01 0.01 0.02 0.03 0.03 0.02 0.02 0.02 0.02 0.03 0.05 0.05 0.05 0.05 0.05 0.02 0.03 0.03 0.04 0.05 0.09 0.10 0.10 0.07 0.03 0.03 0.03 0.03 0.03 0.03 0.02 0.03 0.03 0.02 0.03 0.02
0.02 0.05 0.04 0.02 0.01 0.00 0.00 0.01 0.01 0.01 0.02 0.02 0.02 0.02 0.01 0.01 0.03 0.03 0.04 0.04 0.03 0.04 0.05 0.07 0.04 0.03 0.04 0.03 0.03 0.05 0.04 0.05 0.06 0.08 0.09 0.08 0.05 0.04 0.03 0.03 0.04 0.04 0.04 0.03 0.03 0.03 0.02 0.02 0.03
0.02 0.03 0.03 0.01 0.01 0.00 0.00 0.01 0.01 0.01 0.02 0.01 0.01 0.01 0.02 0.02 0.03 0.04 0.04 0.05 0.04 0.03 0.04 0.04 0.03 0.01 0.02 0.03 0.02 0.03 0.04 0.05 0.06 0.05 0.05 0.07 0.06 0.05 0.04 0.03 0.03 0.04 0.04 0.03 0.03 0.03 0.02 0.02 0.02
0.01 0.02 0.02 0.01 0.01 0.01 0.01 0.01 0.01 0.01 0.02 0.01 0.00 0.01 0.01 0.02 0.04 0.04 0.05 0.05 0.04 0.05 0.05 0.03 0.02 0.01 0.01 0.02 0.01 0.02 0.02 0.04 0.04 0.04 0.03 0.05 0.06 0.06 0.05 0.03 0.03 0.04 0.05 0.03 0.02 0.02 0.02 0.01 0.01
0.01 0.01 0.01 0.00 0.01 0.02 0.01 0.01 0.02 0.01 0.01 0.00 0.00 0.00 0.01 0.02 0.02 0.03 0.04 0.04 0.04 0.04 0.03 0.02 0.02 0.01 0.01 0.01 0.01 0.03 0.03 0.03 0.03 0.03 0.03 0.04 0.07 0.07 0.06 0.05 0.04 0.03 0.03 0.03 0.02 0.02 0.02 0.01 0.01
0.01 0.01 0.00 0.00 0.00 0.01 0.01 0.01 0.01 0.01 0.00 0.01 0.02 0.01 0.01 0.02 0.02 0.03 0.05 0.04 0.03 0.03 0.02 0.01 0.01 0.01 0.01 0.01 0.01 0.02 0.02 0.02 0.02 0.03 0.04 0.04 0.06 0.07 0.06 0.05 0.02 0.01 0.02 0.02 0.02 0.02 0.02 0.01 0.00
0.01 0.01 0.01 0.01 0.01 0.01 0.01 0.02 0.01 0.00 0.00 0.01 0.06 0.04 0.02 0.02 0.02 0.02 0.02 0.03 0.03 0.03 0.03 0.02 0.01 0.01 0.01 0.01 0.01 0.01 0.01 0.01 0.01 0.01 0.01 0.02 0.02 0.03 0.04 0.04 0.02 0.02 0.02 0.02 0.02 0.02 0.01 0.01 0.01
0.02 0.02 0.03 0.02 0.01 0.01 0.02 0.03 0.01 0.00 0.00 0.01 0.03 0.03 0.02 0.02 0.02 0.02 0.02 0.03 0.02 0.02 0.02 0.01 0.01 0.01 0.01 0.02 0.02 0.01 0.01 0.00 0.01 0.01 0.01 0.00 0.01 0.01 0.02 0.04 0.02 0.01 0.01 0.02 0.02 0.02 0.02 0.01 0.01
0.04 0.04 0.03 0.03 0.02 0.01 0.02 0.03 0.01 0.00 0.00 0.01 0.01 0.03 0.02 0.01 0.02 0.02 0.01 0.01 0.01 0.01 0.01 0.01 0.01 0.01 0.01 0.01 0.01 0.02 0.01 0.01 0.01 0.01 0.01 0.00 0.01 0.01 0.02 0.04 0.03 0.02 0.02 0.02 0.02 0.01 0.01 0.01 0.01
0.03 0.03 0.03 0.03 0.02 0.02 0.02 0.02 0.01 0.00 0.00 0.01 0.01 0.02 0.03 0.02 0.02 0.02 0.01 0.01 0.01 0.01 0.00 0.01 0.01 0.01 0.01 0.01 0.02 0.02 0.02 0.02 0.03 0.02 0.01 0.00 0.01 0.01 0.03 0.05 0.03 0.03 0.03 0.02 0.02 0.02 0.02 0.02 0.02
0.02 0.02 0.02 0.02 0.01 0.02 0.02 0.01 0.01 0.00 0.00 0.01 0.01 0.01 0.02 0.02 0.04 0.04 0.02 0.01 0.01 0.01 0.01 0.02 0.02 0.02 0.01 0.02 0.03 0.03 0.03 0.02 0.03 0.02 0.01 0.00 0.01 0.01 0.02 0.03 0.04 0.03 0.03 0.03 0.03 0.03 0.04 0.04 0.02
0.01 0.02 0.01 0.01 0.01 0.01 0.01 0.01 0.00 0.00 0.01 0.01 0.00 0.00 0.01 0.01 0.02 0.02 0.01 0.01 0.01 0.01 0.01 0.03 0.03 0.02 0.02 0.02 0.02 0.03 0.03 0.02 0.02 0.01 0.01 0.00 0.01 0.02 0.02 0.01 0.02 0.02 0.03 0.03 0.03 0.03 0.05 0.04 0.02
0.01 0.01 0.01 0.01 0.01 0.01 0.01 0.01 0.01 0.01 0.01 0.01 0.00 0.01 0.01 0.01 0.01 0.01 0.01 0.01 0.01 0.01 0.01 0.01 0.01 0.01 0.02 0.02 0.03 0.03 0.05 0.04 0.04 0.03 0.02 0.01 0.01 0.03 0.02 0.01 0.01 0.01 0.01 0.01 0.01 0.01 0.02 0.02 0.01
0.01 0.00 0.00 0.00 0.02 0.03 0.01 0.03 0.02 0.01 0.01 0.01 0.01 0.00 0.01 0.01 0.01 0.01 0.02 0.02 0.02 0.01 0.01 0.01 0.01 0.01 0.01 0.01 0.02 0.04 0.05 0.06 0.05 0.03 0.01 0.01 0.02 0.02 0.02 0.02 0.02 0.01 0.00 0.01 0.01 0.01 0.02 0.03 0.03
0.01 0.00 0.00 0.00 0.01 0.03 0.01 0.03 0.02 0.01 0.01 0.01 0.02 0.01 0.00 0.00 0.01 0.01 0.02 0.02 0.02 0.02 0.01 0.02 0.01 0.01 0.00 0.01 0.02 0.04 0.05 0.05 0.03 0.01 0.01 0.01 0.01 0.02 0.02 0.03 0.02 0.01 0.01 0.01 0.01 0.01 0.02 0.02 0.02
0.01 0.00 0.01 0.01 0.03 0.04 0.01 0.02 0.02 0.00 0.00 0.01 0.01 0.01 0.00 0.00 0.01 0.00 0.01 0.01 0.02 0.02 0.02 0.02 0.02 0.02 0.01 0.01 0.01 0.01 0.02 0.02 0.02 0.02 0.01 0.02 0.02 0.02 0.01 0.01 0.02 0.02 0.01 0.01 0.01 0.02 0.02 0.01 0.01
0.01 0.03 0.05 0.06 0.06 0.04 0.01 0.01 0.01 0.00 0.00 0.00 0.00 0.00 0.00 0.00 0.00 0.00 0.00 0.01 0.01 0.02 0.02 0.03 0.02 0.03 0.02 0.01 0.01 0.01 0.02 0.01 0.01 0.01 0.02 0.01 0.02 0.01 0.01 0.01 0.01 0.02 0.02 0.01 0.01 0.02 0.02 0.02 0.01
0.01 0.02 0.05 0.05 0.05 0.03 0.01 0.00 0.00 0.00 0.00 0.00 0.00 0.00 0.00 0.00 0.00 0.00 0.00 0.01 0.01 0.02 0.02 0.02 0.02 0.02 0.02 0.01 0.00 0.00 0.00 0.01 0.01 0.01 0.01 0.00 0.01 0.01 0.00 0.00 0.01 0.01 0.01 0.01 0.01 0.01 0.02 0.02 0.02
0.01 0.01 0.01 0.02 0.03 0.04 0.02 0.00 0.00 0.00 0.00 0.00 0.00 0.00 0.00 0.00 0.00 0.00 0.00 0.00 0.01 0.01 0.01 0.02 0.01 0.02 0.02 0.03 0.01 0.00 0.00 0.00 0.01 0.01 0.00 0.00 0.00 0.01 0.00 0.01 0.01 0.01 0.01 0.00 0.00 0.01 0.01 0.02 0.02
0.00 0.00 0.01 0.02 0.04 0.05 0.03 0.01 0.00 0.00 0.00 0.00 0.00 0.00 0.00 0.00 0.00 0.01 0.01 0.00 0.01 0.01 0.01 0.01 0.02 0.02 0.02 0.02 0.02 0.01 0.01 0.01 0.01 0.01 0.01 0.01 0.01 0.01 0.01 0.01 0.01 0.00 0.00 0.00 0.00 0.01 0.01 0.01 0.01
0.00 0.00 0.01 0.02 0.02 0.04 0.04 0.02 0.00 0.00 0.00 0.00 0.00 0.00 0.01 0.01 0.01 0.01 0.01 0.01 0.01 0.01 0.01 0.01 0.02 0.02 0.02 0.01 0.01 0.02 0.02 0.02 0.02 0.01 0.01 0.01 0.00 0.00 0.00 0.00 0.00 0.00 0.00 0.00 0.01 0.01 0.01 0.01 0.01
0.00 0.00 0.01 0.02 0.02 0.01 0.03 0.02 0.00 0.00 0.00 0.00 0.00 0.00 0.01 0.01 0.02 0.02 0.02 0.02 0.02 0.02 0.01 0.01 0.01 0.01 0.01 0.01 0.01 0.01 0.02 0.03 0.01 0.01 0.00 0.01 0.01 0.00 0.00 0.00 0.00 0.00 0.01 0.00 0.00 0.01 0.01 0.01 0.01
MSLP
1007.09 1007.83 1008.89 1010.18 1011.60 1013.00 1014.27 1015.29 1016.04 1016.51 1016.77 1016.92 1017.03 1017.18 1017.36 1017.55 1017.69 1017.70 1017.52 1017.13 1016.55 1015.85 1015.12 1014.45 1013.91 1013.54 1013.33 1013.22 1013.17 1013.12 1013.02 1012.88 1012.72 1012.59 1012.51 1012.53 1012.63 1012.79 1012.97 1013.11 1013.18 1013.15 1013.01 1012.81 1012.55 1012.29 1012.03 1011.77 1011.52
1007.43 1008.36 1009.57 1010.97 1012.43 1013.82 1015.02 1015.94 1016.55 1016.88 1017.01 1017.04 1017.06 1017.12 1017.24 1017.39 1017.49 1017.48 1017.29 1016.91 1016.37 1015.73 1015.07 1014.47 1014.01 1013.70 1013.53 1013.45 1013.41 1013.35 1013.25 1013.12 1012.97 1012.85 1012.80 1012.84 1012.96 1013.13 1013.31 1013.43 1013.47 1013.40 1013.24 1013.01 1012.74 1012.46 1012.18 1011.89 1011.59
1007.92 1009.00 1010.34 1011.81 1013.28 1014.63 1015.73 1016.53 1017.01 1017.21 1017.22 1017.15 1017.08 1017.06 1017.11 1017.20 1017.25 1017.20 1017.00 1016.63 1016.13 1015.55 1014.97 1014.46 1014.08 1013.85 1013.73 1013.69 1013.67 1013.63 1013.54 1013.42 1013.30 1013.21 1013.19 1013.24 1013.37 1013.53 1013.68 1013.77 1013.77 1013.67 1013.49 1013.24 1012.97 1012.68 1012.40 1012.10 1011.77
1008.51 1009.72 1011.14 1012.64 1014.10 1015.38 1016.38 1017.06 1017.42 1017.52 1017.43 1017.28 1017.14 1017.05 1017.03 1017.04 1017.03 1016.93 1016.70 1016.34 1015.86 1015.34 1014.84 1014.42 1014.13 1013.97 1013.92 1013.92 1013.93 1013.91 1013.86 1013.77 1013.68 1013.62 1013.63 1013.71 1013.83 1013.98 1014.10 1014.15 1014.11 1013.98 1013.78 1013.53 1013.26 1013.00 1012.72 1012.43 1012.09
1009.16 1010.47 1011.93 1013.42 1014.82 1016.02 1016.92 1017.51 1017.78 1017.79 1017.66 1017.45 1017.26 1017.12 1017.04 1016.98 1016.90 1016.73 1016.46 1016.08 1015.63 1015.15 1014.72 1014.38 1014.17 1014.07 1014.07 1014.12 1014.16 1014.18 1014.15 1014.10 1014.06 1014.05 1014.09 1014.19 1014.33 1014.46 1014.55 1014.57 1014.50 1014.35 1014.14 1013.89 1013.65 1013.40 1013.16 1012.90 1012.57
1009.84 1011.19 1012.64 1014.09 1015.41 1016.51 1017.31 1017.81 1018.03 1018.01 1017.85 1017.64 1017.44 1017.27 1017.14 1017.02 1016.86 1016.63 1016.32 1015.91 1015.47 1015.03 1014.64 1014.37 1014.21 1014.16 1014.20 1014.27 1014.34 1014.39 1014.40 1014.40 1014.41 1014.45 1014.54 1014.66 1014.81 1014.94 1015.02 1015.02 1014.92 1014.76 1014.55 1014.32 1014.10 1013.90 1013.70 1013.46 1013.17
1010.52 1011.86 1013.26 1014.62 1015.83 1016.81 1017.52 1017.95 1018.13 1018.11 1017.97 1017.78 1017.60 1017.43 1017.28 1017.12 1016.92 1016.64 1016.28 1015.86 1015.42 1015.00 1014.66 1014.41 1014.29 1014.27 1014.31 1014.40 1014.48 1014.54 1014.59 1014.63 1014.69 1014.78 1014.92 1015.09 1015.26 1015.40 1015.47 1015.46 1015.36 1015.19 1014.99 1014.78 1014.59 1014.43 1014.27 1014.08 1013.83
1011.18 1012.47 1013.78 1015.01 1016.08 1016.93 1017.53 1017.90 1018.05 1018.05 1017.96 1017.82 1017.68 1017.55 1017.41 1017.24 1017.01 1016.71 1016.34 1015.92 1015.49 1015.09 1014.77 1014.54 1014.43 1014.41 1014.45 1014.52 1014.59 1014.66 1014.72 1014.80 1014.90 1015.05 1015.24 1015.45 1015.65 1015.80 1015.88 1015.87 1015.78 1015.62 1015.43 1015.25 1015.09 1014.96 1014.84 1014.70 1014.50
1011.85 1013.05 1014.22 1015.29 1016.19 1016.90 1017.39 1017.68 1017.81 1017.83 1017.78 1017.71 1017.63 1017.54 1017.44 1017.29 1017.08 1016.79 1016.43 1016.04 1015.63 1015.27 1014.97 1014.76 1014.64 1014.60 1014.62 1014.66 1014.71 1014.76 1014.83 1014.93 1015.07 1015.26 1015.48 1015.73 1015.96 1016.13 1016.23 1016.23 1016.15 1016.00 1015.84 1015.68 1015.56 1015.46 1015.39 1015.29 1015.15
1012.53 1013.62 1014.63 1015.52 1016.24 1016.77 1017.13 1017.34 1017.43 1017.46 1017.45 1017.43 1017.42 1017.39 1017.33 1017.23 1017.06 1016.81 1016.51 1016.16 1015.81 1015.49 1015.23 1015.03 1014.91 1014.85 1014.83 1014.84 1014.85 1014.89 1014.95 1015.05 1015.21 1015.42 1015.68 1015.94 1016.19 1016.39 1016.50 1016.52 1016.46 1016.35 1016.21 1016.09 1016.00 1015.95 1015.91 1015.86 1015.77
1013.23 1014.20 1015.04 1015.74 1016.26 1016.62 1016.84 1016.96 1017.00 1017.01 1017.02 1017.04 1017.06 1017.08 1017.08 1017.03 1016.92 1016.74 1016.51 1016.24 1015.97 1015.71 1015.50 1015.33 1015.22 1015.14 1015.10 1015.07 1015.06 1015.07 1015.11 1015.21 1015.37 1015.59 1015.84 1016.12 1016.37 1016.58 1016.71 1016.76 1016.73 1016.66 1016.57 1016.49 1016.44 1016.43 1016.44 1016.44 1016.41
1013.95 1014.79 1015.47 1015.98 1016.32 1016.51 1016.60 1016.61 1016.59 1016.56 1016.56 1016.59 1016.64 1016.69 1016.72 1016.72 1016.67 1016.56 1016.41 1016.23 1016.05 1015.87 1015.72 1015.60 1015.50 1015.44 1015.39 1015.35 1015.32 1015.32 1015.35 1015.44 1015.58 1015.78 1016.03 1016.29 1016.54 1016.74 1016.89 1016.96 1016.98 1016.95 1016.92 1016.91 1016.92 1016.96 1017.02 1017.08 1017.10
1014.66 1015.37 1015.90 1016.24 1016.42 1016.48 1016.44 1016.36 1016.27 1016.21 1016.18 1016.19 1016.23 1016.28 1016.33 1016.36 1016.35 1016.31 1016.24 1016.14 1016.04 1015.94 1015.86 1015.79 1015.75 1015.71 1015.69 1015.66 1015.65 1015.65 1015.68 1015.75 1015.88 1016.05 1016.26 1016.49 1016.71 1016.90 1017.05 1017.16 1017.22 1017.26 1017.30 1017.36 1017.44 1017.55 1017.68 1017.79 1017.88
1015.30 1015.90 1016.29 1016.50 1016.56 1016.51 1016.39 1016.24 1016.11 1016.00 1015.94 1015.91 1015.92 1015.96 1016.00 1016.03 1016.05 1016.05 1016.03 1015.99 1015.96 1015.93 1015.92 1015.92 1015.93 1015.95 1015.98 1016.00 1016.03 1016.06 1016.10 1016.17 1016.28 1016.41 1016.57 1016.74 1016.92 1017.09 1017.24 1017.37 1017.49 1017.60 1017.72 1017.86 1018.02 1018.21 1018.40 1018.58 1018.73
1015.82 1016.30 1016.59 1016.70 1016.68 1016.57 1016.42 1016.25 1016.09 1015.95 1015.86 1015.81 1015.78 1015.78 1015.80 1015.82 1015.83 1015.85 1015.85 1015.86 1015.86 1015.89 1015.92 1015.98 1016.06 1016.15 1016.25 1016.35 1016.45 1016.53 1016.61 1016.69 1016.77 1016.86 1016.96 1017.07 1017.19 1017.32 1017.46 1017.61 1017.77 1017.95 1018.15 1018.37 1018.62 1018.88 1019.14 1019.38 1019.59
1016.18 1016.54 1016.74 1016.79 1016.74 1016.62 1016.47 1016.31 1016.16 1016.03 1015.93 1015.85 1015.80 1015.77 1015.76 1015.76 1015.76 1015.77 1015.78 1015.79 1015.82 1015.86 1015.93 1016.04 1016.18 1016.34 1016.53 1016.72 1016.90 1017.05 1017.18 1017.27 1017.34 1017.38 1017.41 1017.45 1017.50 1017.59 1017.70 1017.85 1018.05 1018.28 1018.55 1018.85 1019.17 1019.49 1019.81 1020.10 1020.37
1016.34 1016.60 1016.72 1016.74 1016.69 1016.60 1016.50 1016.38 1016.27 1016.16 1016.06 1015.98 1015.92 1015.87 1015.85 1015.84 1015.84 1015.84 1015.84 1015.85 1015.87 1015.91 1015.99 1016.12 1016.30 1016.54 1016.80 1017.08 1017.36 1017.59 1017.77 1017.89 1017.94 1017.94 1017.91 1017.87 1017.85 1017.88 1017.96 1018.10 1018.32 1018.59 1018.90 1019.25 1019.62 1019.98 1020.34 1020.67 1020.98
1016.33 1016.48 1016.54 1016.55 1016.53 1016.49 1016.45 1016.39 1016.32 1016.25 1016.17 1016.10 1016.04 1016.00 1015.99 1015.99 1016.01 1016.02 1016.03 1016.03 1016.04 1016.06 1016.13 1016.27 1016.47 1016.75 1017.08 1017.45 1017.80 1018.12 1018.35 1018.50 1018.54 1018.50 1018.41 1018.30 1018.21 1018.17 1018.21 1018.34 1018.55 1018.84 1019.17 1019.54 1019.93 1020.31 1020.68 1021.03 1021.36
1016.17 1016.23 1016.25 1016.27 1016.28 1016.30 1016.30 1016.29 1016.26 1016.21 1016.14 1016.08 1016.05 1016.04 1016.07 1016.13 1016.19 1016.24 1016.28 1016.29 1016.29 1016.30 1016.35 1016.47 1016.68 1016.98 1017.36 1017.78 1018.21 1018.59 1018.88 1019.04 1019.09 1019.02 1018.88 1018.71 1018.55 1018.46 1018.46 1018.56 1018.76 1019.04 1019.37 1019.73 1020.10 1020.47 1020.82 1021.17 1021.51
1015.93 1015.93 1015.93 1015.95 1016.00 1016.05 1016.09 1016.09 1016.05 1015.99 1015.91 1015.85 1015.84 1015.88 1015.98 1016.11 1016.27 1016.40 1016.50 1016.55 1016.57 1016.57 1016.60 1016.70 1016.90 1017.20 1017.60 1018.06 1018.54 1018.97 1019.30 1019.49 1019.54 1019.46 1019.28 1019.07 1018.87 1018.74 1018.70 1018.78 1018.95 1019.21 1019.52 1019.85 1020.18 1020.51 1020.82 1021.13 1021.45
1015.68 1015.65 1015.65 1015.70 1015.77 1015.83 1015.84 1015.81 1015.71 1015.58 1015.45 1015.37 1015.36 1015.44 1015.62 1015.87 1016.14 1016.40 1016.60 1016.73 1016.79 1016.81 1016.83 1016.91 1017.08 1017.37 1017.77 1018.25 1018.75 1019.22 1019.58 1019.80 1019.87 1019.79 1019.60 1019.37 1019.15 1019.00 1018.95 1019.00 1019.17 1019.40 1019.68 1019.97 1020.24 1020.50 1020.75 1021.00 1021.29
1015.47 1015.45 1015.49 1015.57 1015.64 1015.67 1015.63 1015.50 1015.29 1015.04 1014.81 1014.65 1014.62 1014.73 1014.98 1015.35 1015.76 1016.16 1016.50 1016.74 1016.87 1016.93 1016.96 1017.03 1017.18 1017.46 1017.85 1018.33 1018.84 1019.33 1019.73 1019.98 1020.07 1020.01 1019.84 1019.62 1019.41 1019.26 1019.21 1019.27 1019.42 1019.64 1019.89 1020.13 1020.35 1020.54 1020.71 1020.90 1021.13
1015.32 1015.37 1015.46 1015.58 1015.65 1015.64 1015.50 1015.23 1014.86 1014.44 1014.06 1013.79 1013.70 1013.82 1014.13 1014.60 1015.15 1015.71 1016.19 1016.55 1016.78 1016.90 1016.96 1017.03 1017.18 1017.43 1017.81 1018.29 1018.81 1019.32 1019.74 1020.03 1020.15 1020.13 1020.00 1019.81 1019.63 1019.51 1019.49 1019.57 1019.74 1019.95 1020.18 1020.39 1020.56 1020.68 1020.77 1020.88 1021.04
1015.23 1015.37 1015.55 1015.71 1015.79 1015.72 1015.47 1015.05 1014.49 1013.88 1013.32 1012.91 1012.74 1012.83 1013.17 1013.72 1014.39 1015.08 1015.70 1016.19 1016.52 1016.72 1016.83 1016.92 1017.06 1017.31 1017.68 1018.15 1018.69 1019.21 1019.66 1019.99 1020.16 1020.19 1020.11 1019.97 1019.84 1019.77 1019.79 1019.90 1020.09 1020.32 1020.55 1020.74 1020.86 1020.93 1020.97 1021.00 1021.09
1015.16 1015.42 1015.69 1015.91 1015.99 1015.87 1015.52 1014.94 1014.21 1013.41 1012.68 1012.13 1011.86 1011.90 1012.25 1012.85 1013.60 1014.40 1015.14 1015.73 1016.16 1016.43 1016.59 1016.71 1016.87 1017.13 1017.50 1017.97 1018.51 1019.06 1019.54 1019.90 1020.13 1020.21 1020.18 1020.11 1020.03 1020.01 1020.07 1020.22 1020.45 1020.70 1020.94 1021.13 1021.24 1021.28 1021.26 1021.24 1021.26
1015.07 1015.44 1015.80 1016.08 1016.17 1016.02 1015.58 1014.89 1014.02 1013.07 1012.20 1011.54 1011.17 1011.16 1011.49 1012.10 1012.91 1013.77 1014.58 1015.26 1015.76 1016.10 1016.31 1016.47 1016.66 1016.93 1017.30 1017.79 1018.34 1018.90 1019.41 1019.81 1020.08 1020.21 1020.24 1020.22 1020.19 1020.22 1020.32 1020.51 1020.76 1021.04 1021.30 1021.50 1021.62 1021.65 1021.61 1021.55 1021.52
1014.91 1015.36 1015.80 1016.12 1016.23 1016.06 1015.58 1014.83 1013.87 1012.84 1011.89 1011.15 1010.72 1010.66 1010.97 1011.58 1012.39 1013.28 1014.13 1014.85 1015.40 1015.79 1016.05 1016.25 1016.47 1016.76 1017.15 1017.65 1018.21 1018.78 1019.31 1019.74 1020.04 1020.21 1020.28 1020.30 1020.31 1020.37 1020.50 1020.71 1020.99 1021.29 1021.57 1021.79 1021.93 1021.98 1021.95 1021.88 1021.82
1014.65 1015.15 1015.62 1015.96 1016.08 1015.91 1015.42 1014.66 1013.69 1012.66 1011.69 1010.94 1010.50 1010.42 1010.70 1011.28 1012.07 1012.95 1013.80 1014.53 1015.11 1015.53 1015.83 1016.07 1016.32 1016.64 1017.05 1017.56 1018.13 1018.71 1019.25 1019.69 1020.01 1020.21 1020.30 1020.34 1020.38 1020.45 1020.60 1020.82 1021.10 1021.42 1021.72 1021.97 1022.14 1022.22 1022.23 1022.18 1022.13
1014.30 1014.78 1015.23 1015.55 1015.66 1015.49 1015.03 1014.30 1013.39 1012.42 1011.51 1010.81 1010.40 1010.33 1010.60 1011.16 1011.92 1012.76 1013.58 1014.30 1014.88 1015.32 1015.66 1015.93 1016.22 1016.56 1017.00 1017.51 1018.08 1018.66 1019.20 1019.65 1019.97 1020.18 1020.29 1020.35 1020.39 1020.47 1020.61 1020.83 1021.12 1021.43 1021.75 1022.03 1022.23 1022.37 1022.42 1022.42 1022.40
1013.87 1014.28 1014.66 1014.92 1014.98 1014.81 1014.37 1013.71 1012.90 1012.04 1011.25 1010.64 1010.31 1010.28 1010.56 1011.09 1011.81 1012.60 1013.38 1014.07 1014.65 1015.10 1015.47 1015.78 1016.10 1016.48 1016.93 1017.46 1018.03 1018.60 1019.13 1019.57 1019.90 1020.11 1020.23 1020.30 1020.36 1020.44 1020.58 1020.79 1021.06 1021.38 1021.70 1022.00 1022.24 1022.42 1022.54 1022.60 1022.64
Thickness
5805 5807 5806 5794 5772 5757 5751 5758 5767 5770 5773 5781 5784 5781 5770 5762 5754 5743 5763 5775 5776 5773 5770 5768 5767 5766 5766 5765 5765 5765 5764 5763 5763 5762 5761 5761 5760 5760 5760 5759 5759 5759 5758 5758 5757 5757 5757 5758 5758
5807 5808 5798 5782 5759 5744 5746 5759 5761 5767 5775 5782 5782 5778 5769 5762 5766 5762 5766 5772 5775 5772 5768 5766 5764 5764 5763 5763 5762 5762 5761 5761 5760 5759 5758 5758 5757 5756 5756 5756 5756 5755 5755 5755 5754 5754 5754 5754 5755
5806 5806 5787 5772 5758 5749 5747 5760 5764 5773 5780 5779 5774 5772 5765 5758 5763 5763 5768 5773 5772 5770 5766 5763 5762 5761 5760 5760 5760 5759 5758 5757 5757 5756 5755 5754 5753 5753 5752 5752 5752 5752 5752 5752 5751 5751 5751 5752 5752
5803 5793 5783 5764 5752 5757 5760 5764 5770 5770 5773 5777 5772 5761 5760 5765 5765 5766 5770 5772 5769 5767 5763 5760 5759 5759 5758 5757 5757 5756 5755 5754 5753 5752 5751 5751 5750 5750 5749 5749 5749 5749 5749 5749 5748 5748 5748 5748 5749
5799 5781 5763 5754 5754 5761 5768 5772 5774 5766 5765 5769 5768 5753 5750 5763 5768 5768 5769 5769 5767 5765 5762 5759 5757 5756 5755 5754 5754 5753 5752 5751 5750 5749 5748 5748 5747 5747 5746 5746 5746 5746 5746 5745 5745 5745 5745 5745 5746
5783 5775 5753 5745 5751 5761 5767 5773 5771 5765 5763 5766 5763 5751 5747 5761 5763 5764 5767 5767 5766 5764 5761 5757 5755 5754 5753 5752 5751 5750 5749 5748 5746 5745 5745 5744 5744 5744 5743 5743 5742 5742 5742 5742 5742 5742 5742 5742 5743
5774 5765 5753 5751 5749 5753 5763 5772 5766 5761 5759 5762 5766 5750 5747 5755 5760 5764 5765 5765 5764 5763 5760 5757 5754 5752 5750 5749 5748 5747 5746 5745 5743 5742 5741 5741 5741 5741 5740 5740 5739 5739 5739 5739 5739 5739 5739 5739 5740
5784 5768 5756 5753 5747 5748 5763 5768 5769 5763 5758 5769 5768 5749 5742 5752 5761 5761 5761 5760 5760 5759 5759 5756 5754 5751 5749 5747 5745 5744 5743 5742 5741 5740 5739 5739 5738 5738 5737 5736 5736 5736 5736 5736 5736 5736 5736 5737 5737
5786 5758 5747 5750 5749 5750 5763 5761 5764 5769 5763 5763 5764 5759 5756 5759 5759 5756 5753 5753 5753 5754 5755 5754 5752 5751 5748 5746 5744 5743 5742 5740 5739 5738 5738 5738 5737 5736 5735 5734 5733 5733 5733 5733 5733 5733 5733 5734 5734
5774 5748 5750 5763 5763 5758 5759 5758 5760 5758 5751 5750 5752 5755 5758 5757 5754 5750 5748 5746 5747 5748 5751 5752 5751 5749 5748 5746 5743 5742 5741 5739 5739 5738 5737 5736 5736 5735 5733 5732 5731 5731 5731 5731 5731 5731 5731 5731 5732
5769 5755 5760 5765 5768 5765 5759 5758 5761 5752 5741 5745 5745 5747 5751 5751 5749 5748 5746 5747 5747 5748 5748 5750 5750 5748 5746 5744 5743 5741 5740 5739 5738 5738 5737 5736 5734 5732 5731 5729 5728 5728 5728 5729 5729 5729 5729 5730 5730
5762 5760 5763 5762 5765 5762 5757 5755 5752 5749 5747 5755 5754 5752 5749 5748 5746 5745 5746 5746 5747 5746 5746 5748 5748 5747 5745 5743 5741 5739 5738 5737 5736 5736 5735 5734 5732 5731 5729 5728 5727 5726 5726 5726 5726 5726 5726 5727 5727
5757 5755 5761 5763 5762 5760 5757 5751 5747 5745 5752 5755 5753 5750 5748 5746 5746 5747 5747 5748 5746 5744 5744 5746 5747 5745 5743 5740 5739 5738 5737 5736 5735 5734 5733 5731 5730 5728 5727 5726 5725 5724 5724 5723 5723 5722 5722 5722 5722
5756 5755 5756 5757 5757 5756 5749 5747 5745 5743 5751 5749 5746 5745 5745 5745 5745 5745 5743 5743 5744 5743 5743 5744 5744 5743 5741 5738 5737 5735 5734 5733 5732 5731 5731 5729 5728 5726 5724 5723 5722 5721 5721 5720 5720 5718 5718 5717 5716
5760 5749 5747 5750 5753 5752 5748 5735 5738 5745 5748 5743 5742 5742 5743 5744 5744 5743 5742 5742 5743 5743 5743 5742 5741 5740 5738 5736 5735 5734 5732 5731 5730 5728 5728 5727 5725 5724 5722 5721 5719 5718 5718 5717 5716 5715 5714 5712 5711
5751 5739 5729 5743 5750 5750 5738 5719 5737 5747 5744 5738 5739 5739 5739 5740 5742 5743 5744 5743 5742 5741 5741 5740 5740 5737 5735 5734 5732 5732 5730 5728 5727 5725 5725 5724 5722 5721 5719 5718 5716 5715 5714 5713 5711 5710 5708 5706 5705
5737 5726 5726 5735 5749 5748 5736 5723 5737 5746 5743 5738 5738 5738 5737 5737 5740 5742 5744 5743 5742 5741 5740 5738 5737 5734 5733 5731 5730 5729 5728 5726 5724 5722 5721 5720 5719 5718 5716 5715 5713 5711 5710 5709 5707 5705 5703 5701 5700
5728 5729 5728 5731 5743 5743 5733 5729 5738 5745 5743 5739 5738 5737 5736 5735 5737 5741 5742 5742 5741 5741 5740 5737 5735 5733 5731 5728 5727 5725 5723 5722 5721 5719 5718 5717 5716 5715 5713 5711 5710 5708 5705 5704 5702 5700 5699 5697 5696
5742 5733 5728 5735 5746 5740 5732 5730 5736 5742 5741 5738 5737 5736 5735 5735 5738 5740 5741 5740 5739 5738 5736 5733 5731 5730 5728 5724 5721 5718 5717 5718 5717 5716 5715 5714 5713 5712 5710 5708 5706 5704 5702 5700 5698 5696 5694 5692 5693
5741 5732 5730 5736 5745 5740 5733 5732 5740 5742 5740 5740 5738 5737 5737 5736 5736 5736 5737 5736 5735 5734 5733 5732 5729 5728 5726 5723 5721 5719 5716 5715 5714 5714 5713 5712 5710 5709 5708 5705 5703 5701 5699 5696 5695 5693 5689 5688 5689
5739 5734 5733 5732 5739 5743 5734 5726 5734 5741 5744 5742 5742 5741 5740 5737 5734 5733 5732 5732 5732 5731 5731 5731 5728 5727 5725 5723 5720 5717 5714 5712 5710 5709 5708 5709 5708 5706 5705 5703 5701 5698 5696 5693 5691 5690 5687 5683 5685
5732 5746 5743 5738 5728 5722 5730 5708 5728 5738 5735 5737 5738 5739 5739 5738 5736 5733 5731 5730 5729 5730 5730 5729 5728 5725 5723 5722 5718 5713 5708 5705 5706 5706 5706 5706 5705 5703 5702 5700 5698 5696 5694 5691 5689 5687 5685 5682 5678
5740 5750 5746 5741 5731 5724 5731 5717 5724 5738 5729 5733 5737 5738 5739 5739 5737 5733 5731 5730 5730 5729 5728 5727 5726 5724 5722 5720 5717 5712 5709 5707 5707 5706 5704 5703 5702 5701 5699 5697 5695 5693 5691 5689 5687 5684 5683 5680 5677
5749 5745 5744 5741 5730 5711 5729 5720 5716 5732 5735 5736 5738 5739 5739 5739 5737 5734 5732 5730 5728 5727 5725 5723 5721 5719 5718 5717 5715 5711 5708 5705 5703 5702 5700 5699 5698 5697 5696 5694 5692 5691 5688 5686 5684 5682 5680 5678 5676
5744 5727 5710 5707 5705 5714 5741 5728 5723 5741 5748 5745 5740 5739 5739 5738 5735 5732 5729 5726 5724 5722 5721 5720 5717 5715 5715 5714 5713 5710 5708 5705 5702 5700 5698 5696 5694 5693 5693 5692 5689 5687 5685 5684 5682 5680 5677 5676 5673
5739 5732 5708 5698 5705 5719 5737 5723 5730 5747 5750 5750 5745 5741 5739 5736 5734 5731 5728 5725 5722 5720 5718 5717 5715 5713 5712 5711 5711 5709 5707 5704 5702 5700 5698 5695 5693 5691 5691 5689 5686 5684 5682 5680 5678 5676 5675 5673 5670
5734 5732 5739 5723 5722 5717 5724 5727 5733 5745 5743 5742 5740 5737 5734 5734 5732 5729 5727 5724 5721 5719 5717 5715 5713 5712 5710 5709 5707 5707 5705 5702 5700 5698 5697 5694 5692 5690 5688 5686 5683 5681 5679 5676 5674 5672 5670 5668 5666
5745 5740 5731 5718 5703 5701 5715 5718 5717 5726 5731 5734 5733 5731 5730 5731 5729 5727 5724 5722 5720 5718 5715 5714 5713 5710 5708 5707 5705 5704 5701 5700 5697 5695 5693 5691 5690 5688 5685 5682 5680 5677 5675 5673 5670 5668 5666 5664 5661
5736 5733 5728 5722 5718 5700 5695 5705 5736 5732 5734 5732 5731 5730 5728 5727 5725 5723 5721 5719 5717 5715 5712 5710 5709 5707 5705 5703 5701 5699 5697 5695 5694 5691 5689 5688 5686 5685 5682 5679 5677 5674 5672 5669 5666 5664 5662 5659 5657
5740 5733 5726 5706 5706 5712 5702 5704 5741 5739 5737 5734 5730 5729 5728 5725 5722 5720 5717 5714 5711 5708 5706 5705 5704 5702 5700 5699 5698 5695 5693 5691 5689 5687 5686 5685 5683 5681 5679 5676 5673 5671 5668 5666 5663 5660 5658 5656 5653